Lid_Strength_Index
1 1 1 0 0 0 0 0 -0 -1 -1 -1 -1 -1 -1 -1 -1 -1 -1 -1 -0 -1 -1 -1 -0 -1 0 -0 -0 -0 0 1 3 1 0 -1 -1 -1 -1 -2 -2 -2 -2
1 0 1 0 0 0 1 0 0 0 -1 -1 -1 -0 -1 -1 -1 -1 -0 -1 -0 -0 -0 -0 -0 -0 -1 -1 0 -1 -0 -0 1 2 1 1 -0 -1 -1 -1 -1 -1 -2
1 1 1 1 1 1 0 0 0 -0 0 0 -0 0 -0 -0 -0 -1 -1 -0 -0 -0 -0 -0 -0 -0 -0 -0 -0 0 0 -0 0 1 2 0 -0 -0 -0 -1 -1 -1 -1
1 1 1 1 1 1 0 1 0 1 0 0 0 0 -0 -0 -0 -0 -0 -0 -0 -1 -1 -1 -0 -0 -0 -0 -0 -0 -0 1 0 1 2 1 1 -0 0 1 1 -0 -0
1 1 1 1 0 0 0 0 0 0 0 0 1 0 -0 0 0 -0 -0 -0 -0 -0 -1 -1 -1 -1 -0 -0 0 -0 -0 1 1 1 2 2 2 2 2 1 1 1 0
1 1 1 1 1 1 1 0 0 0 0 1 1 1 1 1 1 1 0 -0 -0 -0 0 -0 -1 -0 -0 0 0 0 -0 1 1 2 2 2 2 1 1 1 1 2 3
1 1 1 1 1 1 1 1 1 1 1 2 2 2 1 0 2 2 1 -0 -0 -0 -0 -0 0 0 -0 -0 0 1 0 1 0 0 1 1 1 0 1 1 1 1 2
2 1 1 1 1 1 1 1 1 1 2 1 1 0 1 1 3 3 1 -0 -0 -0 -0 -0 0 1 -0 -0 -0 -0 -0 -1 -1 -0 -0 -0 -1 -1 -1 -0 0 1 1
2 2 1 1 1 2 2 2 1 1 2 2 1 0 0 1 4 5 2 0 0 1 0 0 0 0 2 2 -0 0 0 -0 0 1 1 1 1 1 0 0 1 2 3
2 1 1 1 1 2 1 1 1 2 2 2 1 0 2 1 4 6 4 1 1 1 0 -0 3 1 3 3 0 0 1 0 -0 -0 -1 -0 -1 -1 -0 -0 1 3 3
1 1 1 1 1 1 1 1 1 2 2 1 1 1 1 1 1 6 5 1 1 1 1 1 1 4 5 5 4 -0 0 0 0 0 0 -0 -0 -1 -0 -1 -1 0 2
1 1 1 1 1 1 2 2 2 2 1 1 1 1 1 0 3 6 6 4 2 1 1 1 2 6 5 5 3 3 3 3 0 0 1 1 1 1 0 -0 -1 -1 -1
1 1 2 1 1 1 2 2 2 2 2 2 2 2 2 1 0 6 6 6 4 1 0 3 6 6 6 5 4 3 4 0 1 1 1 1 1 1 1 -0 -1 -2 -1
2 2 2 2 2 2 2 2 2 2 2 2 2 2 2 2 1 0 2 1 4 2 4 1 2 3 4 3 1 2 -0 -0 1 1 1 1 1 2 3 3 3 2 1
2 2 2 2 2 2 6 5 2 1 4 2 2 2 2 3 2 3 3 0 0 2 1 0 1 1 1 1 0 -0 0 -0 1 1 2 2 3 3 4 4 4 1 2
2 2 2 2 2 2 2 2 13 11 11 11 11 5 4 8 10 10 11 11 10 8 2 1 1 1 1 1 1 1 0 2 1 2 2 2 3 4 4 4 3 2 2
2 1 2 2 2 2 2 2 2 6 12 13 13 12 9 9 11 12 12 11 10 8 1 1 1 1 1 1 1 1 2 2 2 3 3 3 4 4 4 4 4 2 2
1 5 1 1 1 1 1 2 1 2 2 2 9 8 12 12 12 11 10 8 2 3 1 1 1 1 1 1 1 2 2 3 3 4 4 4 4 4 4 5 4 3 2
1 1 1 1 1 1 1 1 1 1 2 2 4 7 9 11 11 10 9 1 0 0 -0 1 1 1 1 1 1 2 3 4 5 4 4 4 4 4 4 4 4 5 4
1 3 1 1 1 1 1 1 2 2 2 2 2 1 3 4 1 1 0 -0 -0 -0 -1 0 1 1 1 1 2 3 4 4 4 4 4 4 4 4 4 4 4 4 3
1 1 2 1 1 1 1 1 1 1 2 1 1 1 4 1 1 1 1 0 0 -1 -0 1 0 1 1 2 3 4 4 4 4 4 4 4 4 4 4 4 4 4 4
1 1 1 1 1 1 1 0 1 1 1 1 1 2 7 1 1 1 0 0 -0 -1 -1 -0 1 2 2 3 4 4 4 4 3 4 4 4 4 4 4 4 4 4 4
1 1 1 1 1 2 1 1 1 1 1 1 1 1 1 1 1 0 0 -0 -1 -0 -0 1 1 3 2 4 4 4 4 3 3 4 4 4 4 4 4 4 4 4 4
1 1 1 1 1 1 1 1 1 3 1 1 1 1 1 1 0 0 0 -0 -0 -0 0 1 1 2 3 5 4 4 3 3 3 3 4 3 3 4 3 3 4 4 4
1 1 1 0 1 1 1 1 1 1 1 1 1 1 0 0 0 0 -0 -0 -0 0 1 1 2 3 4 5 5 5 10 12 7 11 4 3 3 3 3 3 3 4 4
0 -0 -0 -0 0 0 1 1 1 1 1 1 1 1 1 1 1 0 -0 -0 0 0 1 1 2 3 4 5 5 10 13 12 8 12 6 3 3 3 4 3 4 4 4